Location: Malmö
(55.6090°N, 13.0007°E)
Time: 02:06:12
(UTC+01:00)

ISS - Pass Details

Date: 31 January 2021
Orbit: 417 x 422 km, 51.6° (Epoch: 06 March)

Event Time Altitude Azimuth Distance (km) Brightness Sun altitude
Rises 19:39:19 0° 274° (W) 2,378 1.5 -25.0°
Reaches altitude 10° 19:41:53 10° 254° (WSW) 1,511 -0.1 -25.4°
Enters shadow 19:43:43 17° 221° (SW) 1,157 -1.2 -25.7°
